[[{"header":{"parameterUnit":"m.s-1","parameterCategory":1,"la1":30.2991,"la2":30.254,"lo1":-89.0895,"lo2":-89.0444,"dy":0.0017,"dx":0.0017,"nx":28,"ny":28,"refTime":"2024-11-22T03:00:00:Z","depth":0,"parameterNumber":2,"parameterNumberName":"U-component_of_WINDS"},"data":[0,0,0,0,0,0,0,0,0,0,0,0,0,0,0,0,0,0,0,0,0,0,0,0,0,0,0,0,0,0,0,0,0,0,0,0,0,0,0,0,0,0,0,0,0,0,0,0,0,0,0,0,0,0,0,0,0,0,5.3797,5.3799,0,5.3972,5.3974,5.3976,5.3887,5.3882,5.3878,5.3873,5.4058,5.4067,5.4076,0,0,0,0,0,0,0,0,0,0,0,0,0,5.3391,5.3399,5.3797,5.3799,5.3801,5.3972,5.3974,5.3977,5.3888,5.3882,5.3876,5.3871,5.4055,5.4066,5.4077,0,0,0,0,0,0,0,0,0,0,0,0,0,5.3567,5.3401,5.3797,5.3777,5.3777,5.3971,5.3974,5.3977,5.3889,5.3882,5.3875,5.3869,5.4051,5.4065,5.4078,5.4303,0,0,5.4121,5.4127,0,0,0,0,0,0,0,0,5.3557,5.3582,5.3778,5.3779,5.3779,5.39,5.3899,5.4087,5.3891,5.3847,5.3873,5.3865,5.4012,5.4028,5.4076,5.4312,5.432,5.4122,5.413,5.4136,5.414,0,0,0,0,0,0,0,5.3545,5.3574,5.3866,5.3781,5.3782,5.3762,5.3779,5.3934,5.3966,5.385,5.3844,5.3866,5.4011,5.4063,5.408,5.4322,5.4122,5.4134,5.4142,5.4148,5.4752,5.4759,0,0,0,0,0,0,5.3533,5.3564,5.3861,5.3872,5.3649,5.3775,5.3794,5.3869,5.3964,5.3972,5.3871,5.3861,5.4043,5.4064,5.4086,5.4356,5.4136,5.4149,5.4157,5.4744,5.4753,5.4762,0,0,0,0,0,0,5.3524,5.356,5.3854,5.3716,5.3752,5.3789,5.3874,5.3876,5.3928,5.398,5.3986,5.3919,5.4038,5.4067,5.425,5.4361,5.4155,5.4168,5.4735,5.4747,5.4758,5.4897,0,0,0,0,0,0,5.3513,5.3558,5.3642,5.3719,5.376,5.4013,5.3881,5.3884,5.3952,5.394,5.4027,5.4034,5.4035,5.4229,5.4263,5.4377,5.4179,5.4725,5.474,5.4754,5.4883,5.4912,5.4937,0,0,0,0,0,5.3499,5.3676,5.3647,5.3683,5.3866,5.402,5.4043,5.4039,5.3961,5.4047,5.4081,5.4032,5.4343,5.4249,5.4286,5.4406,5.4718,5.4736,5.4753,5.4871,5.4907,5.4937,0,0,0,0,0,0,5.3613,5.3685,5.3654,5.386,5.3935,5.4004,5.4113,5.4077,5.4176,5.4161,5.4153,5.4174,5.4364,5.4403,5.4296,5.4628,5.4519,5.4545,5.4596,5.463,5.4657,5.4644,5.419,0,0,0,0,0,5.3661,5.3778,5.3836,5.4013,5.4051,5.4076,5.4143,5.4133,5.421,5.4241,5.4288,5.4366,5.4482,5.4558,5.4667,5.4888,5.4906,5.4989,5.5016,5.5038,5.5061,5.5181,5.5219,5.4819,5.4819,5.4818,0,0,5.3764,5.3818,5.3893,5.4037,5.4093,5.4216,5.4103,5.4238,5.433,5.4262,5.4437,5.4475,5.4561,5.4765,5.4856,5.4803,5.5175,5.506,5.5077,5.5088,5.5203,5.5241,5.5274,5.4831,5.4829,5.4827,0,0,5.4014,5.4066,5.4219,5.4277,5.4363,5.4378,5.4415,5.4491,5.4513,5.4688,5.464,5.475,5.4949,5.5013,5.5072,5.5346,5.5305,5.5382,5.5525,5.5643,5.5674,5.5702,5.5801,5.5836,5.5404,5.5405,5.5405,0,5.4131,5.4313,5.4303,5.4441,5.4507,5.445,5.4606,5.4664,5.4782,5.4829,5.4767,5.5016,5.507,5.5288,5.5355,5.5404,5.5447,5.5372,5.567,5.5698,5.5724,5.5818,5.5855,5.5414,5.5413,5.5412,5.5411,0,5.4453,5.458,5.4694,5.4807,5.4886,5.5032,5.5046,5.5127,5.5111,5.5133,5.5313,5.5377,5.5498,5.5549,5.5535,5.5765,5.5729,5.5669,5.5559,5.5771,5.5859,5.5895,5.5426,5.5423,5.542,5.5418,0,0,5.478,5.4885,5.4928,5.4979,5.5069,5.5168,5.5313,5.543,5.55,5.5584,5.5706,5.5876,5.5821,5.5887,5.588,5.5984,5.6198,5.5911,5.5913,5.5962,5.6457,5.6502,5.6544,5.6171,5.6178,5.6183,5.645,0,5.5036,5.5288,5.5283,5.5517,5.5635,5.5583,5.5709,5.578,5.5805,5.591,5.5938,5.6059,5.5976,5.6016,5.6116,5.6151,5.6297,5.6131,5.6286,5.6292,5.6266,5.659,5.6638,5.6886,5.6484,5.649,5.6494,0,5.5369,5.5462,5.5707,5.5781,5.583,5.5944,5.6051,5.6151,5.6231,5.6242,5.6316,5.6293,5.6442,5.6328,5.6534,5.6421,5.6484,5.6511,5.652,5.6535,5.6406,5.6614,5.6965,5.7003,5.6548,5.6544,5.654,0,5.5584,5.577,5.5941,5.5987,5.6077,5.6158,5.6199,5.6272,5.6342,5.6437,5.6483,5.6594,5.6655,5.6743,5.6751,5.6666,5.6959,5.6845,5.6974,5.6974,5.7038,5.7034,5.7405,5.7078,5.7078,5.7077,5.7076,0,5.5871,5.6024,5.6039,5.6144,5.6314,5.6308,5.6477,5.6511,5.6576,5.6689,5.6651,5.6758,5.6761,5.6871,5.6879,5.7049,5.7077,5.7091,5.7092,5.7095,5.7093,5.7137,5.712,5.7087,5.7085,5.7083,5.7081,0,5.614,5.6156,5.6339,5.6409,5.643,5.6552,5.6613,5.6714,5.6735,5.6878,5.6911,5.6945,5.7073,5.7089,5.7239,5.7244,5.7448,5.743,5.7421,5.7419,5.7547,5.7535,5.796,5.8015,5.7651,5.7655,5.7658,0,5.6322,5.6438,5.652,5.6591,5.6637,5.6753,5.6825,5.6824,5.6901,5.7,5.709,5.7213,5.7311,5.7517,5.7557,5.7671,5.7656,5.7797,5.7673,5.7673,5.7659,5.7652,5.7664,5.7821,5.7825,5.7828,5.7831,0,5.6645,5.6647,5.675,5.6858,5.6944,5.7029,5.7109,5.717,5.7179,5.7268,5.7396,5.7473,5.7624,5.7748,5.7861,5.7905,5.7871,5.7869,5.7905,5.791,5.79,5.7908,5.7487,5.786,5.7857,5.7855,5.7853,5.7852,5.6877,5.6977,5.705,5.7167,5.7227,5.7302,5.7401,5.7434,5.7541,5.7663,5.7656,5.7799,5.7876,5.8024,5.8076,5.8189,5.8143,5.8195,5.8208,5.8221,5.8234,5.7882,5.8209,5.8208,5.8208,5.8207,5.8206,0,5.7198,5.7242,5.735,5.7461,5.7554,5.7511,5.7598,5.7678,5.7804,5.7878,5.7975,5.8124,5.8243,5.8292,5.8409,5.849,5.8477,5.8521,5.8515,5.8526,5.8268,5.8226,5.8529,5.8529,5.8529,5.8529,5.8529,5.8529,5.7376,5.7544,5.7555,5.7753,5.7796,5.7934,5.7987,5.8057,5.8116,5.8283,5.8381,5.8411,5.8476,5.8598,5.8706,5.8717,5.8763,5.8814,5.8819,5.8577,5.8544,5.8513,5.8473,5.8824,5.8824,5.9067,5.9069,5.9071]},{"header":{"parameterUnit":"m.s-1","parameterCategory":1,"la1":30.2991,"la2":30.254,"lo1":-89.0895,"lo2":-89.0444,"dy":0.0017,"dx":0.0017,"nx":28,"ny":28,"refTime":"2024-11-22T03:00:00:Z","depth":0,"parameterNumber":3,"parameterNumberName":"V-component_of_WINDS"},"data":[0,0,0,0,0,0,0,0,0,0,0,0,0,0,0,0,0,0,0,0,0,0,0,0,0,0,0,0,0,0,0,0,0,0,0,0,0,0,0,0,0,0,0,0,0,0,0,0,0,0,0,0,0,0,0,0,0,0,-2.84,-2.8402,0,-2.8584,-2.8586,-2.8588,-2.8602,-2.86,-2.8598,-2.8596,-2.8789,-2.8796,-2.8803,0,0,0,0,0,0,0,0,0,0,0,0,0,-2.8068,-2.8073,-2.84,-2.8402,-2.8404,-2.8583,-2.8586,-2.8588,-2.8602,-2.86,-2.8597,-2.8595,-2.8787,-2.8795,-2.8804,0,0,0,0,0,0,0,0,0,0,0,0,0,-2.8228,-2.8075,-2.8399,-2.8433,-2.8438,-2.8583,-2.8586,-2.8589,-2.8603,-2.86,-2.8597,-2.8594,-2.8784,-2.8794,-2.8805,-2.8931,0,0,-2.8837,-2.8842,0,0,0,0,0,0,0,0,-2.8219,-2.824,-2.8426,-2.8431,-2.8436,-2.8567,-2.8539,-2.8704,-2.8604,-2.854,-2.8596,-2.8592,-2.8718,-2.8734,-2.8775,-2.894,-2.8948,-2.8838,-2.8844,-2.8849,-2.8852,0,0,0,0,0,0,0,-2.8207,-2.8232,-2.8473,-2.8428,-2.8435,-2.8441,-2.846,-2.8571,-2.8644,-2.8546,-2.8547,-2.8568,-2.872,-2.8765,-2.878,-2.8951,-2.8838,-2.8847,-2.8854,-2.8858,-2.9231,-2.9234,0,0,0,0,0,0,-2.8189,-2.8223,-2.8467,-2.8478,-2.8318,-2.8449,-2.8471,-2.8528,-2.8643,-2.8657,-2.8571,-2.8568,-2.8748,-2.8767,-2.8787,-2.8943,-2.8849,-2.8859,-2.8865,-2.9227,-2.9231,-2.9235,0,0,0,0,0,0,-2.8182,-2.8211,-2.8459,-2.8351,-2.8383,-2.8458,-2.8522,-2.8533,-2.8578,-2.8662,-2.8676,-2.8602,-2.8747,-2.8772,-2.8895,-2.895,-2.8864,-2.8873,-2.9223,-2.9228,-2.9233,-2.9255,0,0,0,0,0,0,-2.8172,-2.8208,-2.8255,-2.8352,-2.8389,-2.8563,-2.8526,-2.8539,-2.8595,-2.8594,-2.8695,-2.8709,-2.8746,-2.8879,-2.8905,-2.8963,-2.8881,-2.9218,-2.9225,-2.9232,-2.925,-2.9261,-2.927,0,0,0,0,0,-2.816,-2.8255,-2.8257,-2.8287,-2.8449,-2.8566,-2.8587,-2.8627,-2.8599,-2.8649,-2.8703,-2.8706,-2.8939,-2.8892,-2.8921,-2.8983,-2.9215,-2.9223,-2.9231,-2.9246,-2.9259,-2.927,0,0,0,0,0,0,-2.8164,-2.8268,-2.8272,-2.84,-2.8474,-2.8568,-2.8631,-2.8639,-2.8723,-2.8719,-2.8766,-2.8789,-2.8911,-2.8959,-2.8904,-2.9112,-2.9075,-2.9089,-2.9075,-2.9089,-2.9098,-2.9085,-2.889,0,0,0,0,0,-2.8179,-2.8264,-2.8351,-2.8456,-2.8492,-2.8555,-2.8608,-2.8632,-2.8711,-2.8743,-2.8806,-2.8884,-2.8976,-2.9035,-2.9123,-2.9257,-2.9281,-2.9314,-2.9324,-2.9332,-2.9344,-2.9421,-2.9437,-2.9262,-2.9262,-2.9262,0,0,-2.8213,-2.828,-2.8331,-2.8458,-2.8518,-2.8607,-2.8581,-2.8676,-2.8743,-2.8758,-2.8878,-2.8927,-2.9018,-2.9147,-2.9208,-2.9191,-2.9398,-2.9342,-2.9348,-2.9356,-2.9431,-2.9447,-2.9462,-2.9267,-2.9266,-2.9265,0,0,-2.8319,-2.8377,-2.8471,-2.8532,-2.8623,-2.8664,-2.8687,-2.878,-2.8813,-2.8934,-2.8948,-2.9029,-2.9184,-2.9249,-2.9302,-2.9434,-2.9441,-2.9462,-2.9514,-2.9588,-2.9602,-2.9615,-2.9664,-2.968,-2.9474,-2.9474,-2.9474,0,-2.8349,-2.8481,-2.8519,-2.8614,-2.867,-2.8686,-2.8784,-2.8841,-2.8957,-2.8997,-2.8977,-2.9173,-2.9235,-2.9381,-2.9413,-2.9455,-2.9485,-2.9451,-2.9597,-2.961,-2.9622,-2.9669,-2.9687,-2.9476,-2.9476,-2.9475,-2.9475,0,-2.8515,-2.8606,-2.8672,-2.8782,-2.8846,-2.8941,-2.8996,-2.9057,-2.9076,-2.912,-2.9244,-2.932,-2.9424,-2.9461,-2.948,-2.961,-2.9598,-2.9586,-2.955,-2.964,-2.9685,-2.9704,-2.9479,-2.9478,-2.9477,-2.9477,0,0,-2.8628,-2.8758,-2.8781,-2.8832,-2.8934,-2.9007,-2.9104,-2.9205,-2.9257,-2.9337,-2.9421,-2.9553,-2.9544,-2.9604,-2.9632,-2.9697,-2.9799,-2.9678,-2.9681,-2.9699,-2.9949,-2.9957,-2.9977,-2.9803,-2.9807,-2.981,-2.9942,0,-2.8746,-2.8917,-2.8955,-2.9104,-2.919,-2.9207,-2.9292,-2.9365,-2.941,-2.9491,-2.9541,-2.9634,-2.9614,-2.9651,-2.9716,-2.9772,-2.985,-2.9763,-2.9885,-2.9888,-2.9862,-3.0,-3.0009,-3.013,-2.9959,-2.9962,-2.9965,0,-2.8907,-2.8989,-2.9145,-2.9237,-2.9275,-2.935,-2.9447,-2.9524,-2.9608,-2.9636,-2.9704,-2.9725,-2.9829,-2.9787,-2.9933,-2.9874,-2.9926,-2.9961,-2.9967,-2.9981,-2.9932,-3.0019,-3.0169,-3.0188,-2.9992,-2.999,-2.9988,0,-2.8975,-2.9125,-2.9238,-2.9281,-2.9391,-2.9444,-2.9492,-2.9573,-2.9632,-2.9717,-2.9756,-2.9853,-2.9907,-2.9982,-3.003,-2.9995,-3.0173,-3.0134,-3.0201,-3.02,-3.0239,-3.0236,-3.04,-3.027,-3.027,-3.0269,-3.0269,0,-2.9104,-2.9199,-2.9271,-2.934,-2.9449,-2.9493,-2.96,-2.9649,-2.9721,-2.9802,-2.9824,-2.99,-2.9958,-3.0043,-3.0082,-3.0198,-3.0222,-3.0249,-3.0258,-3.0248,-3.0244,-3.0283,-3.0277,-3.0274,-3.0273,-3.0272,-3.0271,0,-2.9199,-2.925,-2.9375,-2.9468,-2.9494,-2.957,-2.9651,-2.9721,-2.9766,-2.9869,-2.9896,-2.9968,-3.0069,-3.0124,-3.0252,-3.0278,-3.0409,-3.0413,-3.0379,-3.0384,-3.0448,-3.0442,-3.0644,-3.0674,-3.0522,-3.0524,-3.0525,0,-2.9278,-2.9351,-2.9452,-2.9508,-2.9557,-2.9646,-2.9705,-2.9752,-2.9814,-2.9917,-2.9975,-3.0077,-3.0162,-3.0324,-3.0389,-3.0488,-3.0495,-3.056,-3.051,-3.0498,-3.0498,-3.0494,-3.0503,-3.0568,-3.057,-3.0571,-3.0572,0,-2.9413,-2.9435,-2.9519,-2.9614,-2.9684,-2.9761,-2.9837,-2.9882,-2.9942,-3.0011,-3.0114,-3.018,-3.031,-3.0413,-3.0516,-3.0569,-3.0582,-3.0587,-3.0608,-3.0598,-3.0577,-3.0591,-3.0404,-3.0582,-3.0581,-3.058,-3.058,-3.0579,-2.9504,-2.9571,-2.9652,-2.9747,-2.9808,-2.9879,-2.995,-3.0003,-3.009,-3.0198,-3.0221,-3.0331,-3.0416,-3.0557,-3.0612,-3.0701,-3.0688,-3.0718,-3.0726,-3.0733,-3.0737,-3.0561,-3.072,-3.072,-3.0719,-3.0719,-3.0719,0,-2.9642,-2.9695,-2.9781,-2.9886,-2.9961,-2.9964,-3.0049,-3.0112,-3.0208,-3.0285,-3.0367,-3.0488,-3.0588,-3.066,-3.0763,-3.082,-3.0829,-3.0846,-3.0843,-3.0855,-3.0741,-3.0713,-3.0837,-3.0837,-3.0837,-3.0837,-3.0837,-3.0837,-2.9722,-2.9836,-2.9868,-3.0014,-3.0068,-3.0174,-3.0222,-3.0289,-3.0351,-3.0483,-3.0566,-3.0612,-3.0688,-3.0797,-3.089,-3.0909,-3.0947,-3.0963,-3.0983,-3.0875,-3.0863,-3.0851,-3.0825,-3.0971,-3.0971,-3.109,-3.1091,-3.1092]}]]